カタログに戻る

STARLINK-36693

運用中通信SSO
NORAD 67742·PAYLOAD·🇺🇸 United States

打ち上げ Feb 11, 2026 から Vandenberg Space Force Base

Loading…

次のパス (今後24時間)

TLE

最新Source: CelesTrak SupGP

元期: Sep 14, 2026, 21:15 UTC

1 67742C 26026X   26257.88590278 -.00115890  00000+0 -36052-2 0  2571
2 67742  97.2851 309.8462 0001320  95.0917 254.0719 15.33429951    10

AllMySatでSTARLINK-36693をリアルタイム追跡

Download on the App Store